Location: Songkhla
(7.2000°N, 100.6000°E)
Time: 12:41:10
(UTC+07:00)

Daily predictions for brighter satellites

Satellite Brightness Start Highest point End
(mag) Time Altitude Azimuth Time Altitude Azimuth Time Altitude Azimuth
Ariane 42L R/B 4.1 18:12:12 10° W 18:16:14 88° N 18:37:22 10° E
Cosmos 2184 Rocket 4.0 18:40:27 10° S 18:46:38 73° E 18:52:45 10° N
Cosmos 2263 Rocket 2.3 18:41:50 10° N 18:47:22 59° ENE 18:52:53 10° SSE
SPOT 3 Rocket 4.4 18:44:21 10° SE 18:48:46 28° ENE 18:53:08 10° NNE
NOSS 0 Rocket 4.0 18:45:44 10° S 18:51:45 59° ESE 18:57:47 10° NNE
Abrixas rocket 4.5 18:50:11 10° WNW 18:52:41 21° SW 18:55:11 10° S
CZ-4 R/B 2.8 18:49:15 10° S 18:53:00 42° W 18:56:50 10° NNW
ALOS 2.6 18:50:04 10° S 18:54:43 72° WSW 18:59:21 10° NNW
Cosmos 2221 3.5 18:51:06 10° SSW 18:55:16 52° W 18:59:24 10° N
GPS 2-17 Rocket1 3.5 18:50:47 10° W 18:55:30 65° NNW 19:00:18 10° ENE
Aureole 1 Rocket 4.0 18:54:11 10° NNW 18:57:24 43° WSW 19:01:25 10° S
Cosmos 1300 4.1 18:55:08 10° SSW 18:58:46 44° W 19:02:24 10° NNW
Landsat 4 4.4 18:57:03 10° N 19:00:43 58° WNW 19:04:22 10° SSW
Cosmos 2151 3.5 18:57:39 10° NNW 19:01:54 64° W 19:06:10 10° S
Meteor 2-2 Rocket 4.5 18:56:34 10° SSE 19:02:05 50° E 19:07:43 10° NNE
SWIFT 2.6 18:59:52 10° SW 19:04:01 50° SSE 19:07:34 14° E
Thor Agena Rocket 4.1 18:59:36 10° NE 19:04:28 38° ESE 19:09:21 10° S
IRAS Rocket 4.2 19:01:03 10° SSE 19:06:30 62° ENE 19:11:54 10° N
ATLAS CENTAUR R/B 4.2 19:03:56 10° WSW 19:06:33 19° WNW 19:09:11 10° NNW
EXPRESS MD2 3.1 19:03:49 10° NW 19:06:48 46° SW 19:08:56 10° SSE
OAO 3 Rocket 3.2 19:04:22 10° WSW 19:09:11 80° NW 19:13:54 10° NE
DELTA 2 R/B (1) 3.7 19:10:46 10° NW 19:16:14 63° NE 19:20:08 19° ESE
Cosmos 2228 Rocket 4.2 19:16:15 18° ESE 19:17:54 22° E 19:21:16 10° NE
Cosmos 1809 Rocket 4.4 19:14:16 10° S 19:20:25 89° E 19:26:35 10° N
Cosmos 1455 2.4 19:18:08 10° SSE 19:21:46 45° E 19:25:25 10° NNE
Cosmos 1328 Rocket 3.9 19:18:13 10° SSE 19:22:21 42° E 19:26:29 10° NNE
GPS 2-15 Rocket1 3.6 19:18:06 10° W 19:23:01 64° NNW 19:26:58 15° ENE
In-Cosmos 22 Rocket 4.3 19:23:54 10° N 19:28:59 47° E 19:33:21 14° SSE
HJ-1C 4.1 19:29:19 33° ENE 19:29:19 33° ENE 19:32:15 10° NNE
CZ-2D R/B 4.4 19:30:54 25° ENE 19:30:54 25° ENE 19:33:34 10° NNE
SL-16 R/B 2.7 19:28:00 10° SSE 19:33:02 33° ESE 19:38:02 10° NE
Meteor 2-14 Rocket 4.3 19:28:33 10° S 19:34:37 86° E 19:40:43 10° N
Cosmos 494 Rocket 4.0 19:30:46 10° N 19:35:55 59° ENE 19:39:11 22° SSE
Gblst 52 Del rocket 4.2 19:30:35 10° SW 19:36:56 85° SE 19:42:36 10° NE
Cosmos 1805 Rocket 3.5 19:33:05 10° N 19:37:20 60° E 19:39:47 24° SSE
Cosmos 1371 Rocket 4.0 19:33:35 10° S 19:38:44 59° ESE 19:43:56 10° NNE
Meteor 2-16 Rocket 4.4 19:39:23 10° S 19:45:33 86° E 19:51:41 10° N
Envisat 3.2 19:45:05 39° ESE 19:46:23 48° ENE 19:51:15 10° N
FREGAT/IRIS 3.2 19:47:37 45° SW 19:48:08 53° W 19:51:00 10° NNW
Cosmos 1892 4.4 19:45:29 10° NNE 19:47:00 21° NNE 19:47:00 21° NNE
Cosmos 2056 Rocket 3.4 19:54:34 10° S 19:59:58 79° ESE 20:05:23 10° NNE
Meteor 2-15 Rocket 4.3 19:54:49 10° N 20:00:52 65° E 20:02:42 44° SSE
Cosmos 1151 Rocket 2.9 20:02:39 77° SSW 20:02:56 85° W 20:07:11 10° N
Hubble Space Telescope 2.6 19:59:44 10° W 20:03:14 26° NNW 20:04:45 21° N
Ariane H10+ 4.1 19:59:46 10° W 20:05:02 71° S 20:09:43 39° ESE
Cosmos 2251 Rocket 3.5 20:05:12 10° N 20:10:07 67° NE 20:10:07 67° NE
Nadezhda 3 Rocket 3.9 20:04:19 10° N 20:10:41 84° E 20:13:20 38° S
Meteor 2-3 Rocket 4.4 20:05:38 10° N 20:09:32 40° NE 20:09:32 40° NE
ATLAS 2A CENTAUR R/B 3.7 19:54:15 10° WNW 20:11:25 44° N 20:12:54 38° NE
Palapa 6 Rocket 3.3 20:06:34 10° WSW 20:12:04 73° NNW 20:12:05 73° NNW
Cosmos 1624 Rocket 4.4 20:11:38 10° SSW 20:16:45 60° WNW 20:21:52 10° N
Cosmos 1666 Rocket 4.1 20:13:55 10° NNW 20:17:36 55° NW 20:17:36 55° NW
Cosmos 2344 3.5 20:10:45 10° SSW 20:19:36 87° ESE 20:27:13 10° NNE
Sich 1 4.1 20:20:25 10° NNW 20:24:02 42° WNW 20:24:02 42° WNW
USA 267 3.1 20:21:31 31° NE 20:25:00 89° NW 20:31:33 10° SW
Cosmos 1844 Rocket 2.8 20:22:02 10° NNW 20:26:59 69° NNW 20:26:59 69° NNW
ATLAS 3B CENTAUR R/B 2.7 20:18:00 10° WNW 20:29:51 63° NNE 20:29:56 63° NNE
Ariane 42L Rocket 4.5 20:50:40 10° W 21:07:39 57° WSW 21:07:39 57° WSW
Centaur D-1A AC-31 4.2 21:02:12 10° W 21:12:49 20° NW 21:15:26 16° N
